Location: Unspecified
(0.0000°N, 0.0000°E)
Time: 03:19:48
(UTC+00:00)

Vanguard 1 - Pass Details

Date: 08 December 2017
Orbit: 650 x 3833 km, 34.2° (Epoch: 21 July)

Event Time Altitude Azimuth Distance (km) Brightness Sun altitude
Rises 04:12:52 0° 218° (SW) 6,424 14.1 -22.7°
Reaches altitude 10° 04:17:21 10° 209° (SSW) 5,810 13.9 -21.7°
Maximum altitude 04:35:01 37° 147° (SSE) 4,898 14.0 -17.7°
Drops below altitude 10° 04:55:21 10° 87° (E) 6,730 15.4 -13.0°
Sets 05:00:56 0° 79° (E) 7,508 15.6 -11.7°
